Tracking 17143 objects as of 24-May-2015
HD Live streaming from Space Station

SL-16 DEB

Track SL-16 DEB now!
10-day predictions
SL-16 DEB is classified as:


NORAD ID: 20628
Int'l Code: 1990-046E
Perigee: 846.2 km
Apogee: 1,155.4 km
Inclination: 71.0 °
Period: 105.0 minutes
Semi major axis: 7371 km
RCS: 0.0854 m2 (small)
Launch date: May 22, 1990
Source: Commonwealth of Independent States (former USSR) (CIS)

Note: This is SATELLITE DEBRIS
Your satellite tracking list
Your tracking list is empty





NASA's NSSDC Master Catalog

Two Line Element Set (TLE):
1 20628U 90046E   15143.47827803  .00000057  00000-0  93743-4 0  9992
2 20628 070.9763 169.7461 0209753 164.1871 196.5916 13.71651325251278

Source of the keplerian elements: AFSPC

N2YO: 725